User: anonymous   Login
Location: Unspecified
(0.0000°N, 0.0000°E)
Time: 11:25:43
(UTC+00:00)
Language:

POSAT 1 - Orbit

View from above orbital plane
View from above orbital plane
View from above satellite
View from above satellite

Ground track
Ground track

The orbit data is extracted from the following two-line orbital elements,

1 22829U 93061G   18347.89630236 +.00000001 +00000-0 +17831-4 0  9997
2 22829 098.8710 329.1799 0010537 125.7848 293.4611 14.31018545315769
Epoch (UTC): 13 December 2018 21:30:40
Eccentricity: 0.0010537
inclination: 98.8710°
perigee height: 781 km
apogee height: 796 km
right ascension of ascending node: 329.1799°
argument of perigee: 125.7848°
revolutions per day: 14.31018545
mean anomaly at epoch: 293.4611°
orbit number at epoch: 31576

The dashed part of the orbit path shows where the satellite is in the earth's shadow,  

DLR